#timestamp,LO_Frequency,Hit,StdDev 
1597071615.7,286047005.5,N
1597071635.6,286047005.3,N
1597071655.4,286047007.2,N
1597071675.2,286047009.1,Y
1597071695.1,286047003.4,P
1597071696.0,286047003.4,P
1597071715.8,286047002.9,P
1597071735.7,286047003.5,Y
1597071755.5,286047002.7,P
1597071775.3,286047000.2,N
1597071795.2,286047000.8,N
1597071815.0,286046999.7,N
1597071815.9,286046999.7,N
1597071835.7,286047002.1,N
1597071855.6,286047001.2,N
1597071875.4,286046998.4,N
1597071895.3,286047000.3,N
1597071915.1,286047000.8,N
1597071916.0,286047000.8,N
1597071935.8,286046998.1,N
1597071955.7,286046999.9,N
1597071975.5,286047002.6,N
1597071995.3,286046999.8,N
1597072015.2,286047000.6,N
1597072035.0,286046998.3,N
1597072035.9,286046998.3,N
1597072055.8,286047000.4,N
1597072075.6,286047002.5,N
1597072095.4,286047002.1,N
1597072115.3,286047002.6,N
1597072135.1,286047002.5,N
1597072155.8,286046999.9,N
1597072175.7,286047000.1,N
1597072195.5,286047000.9,N
1597072215.4,286046998.1,N
1597072235.2,286046999.7,N
1597072255.0,286047001.1,N
1597072255.9,286047001.1,N
1597072275.8,286046998.1,N
1597072295.6,286046998.7,N
1597072315.4,286046998.4,N
1597072335.3,286047000.8,N
1597072355.1,286047001.2,N
1597072375.9,286046999.0,N
1597072395.7,286046998.6,N
1597072415.5,286046998.9,N
1597072435.4,286046998.6,N
1597072455.2,286047000.9,N
1597072475.0,286047000.6,N
1597072475.9,286047000.6,N
1597072495.8,286046998.1,N
1597072515.6,286046998.5,N
1597072535.5,286046998.9,N
1597072555.3,286046998.5,N
1597072575.1,286047000.6,N
1597072595.9,286047000.7,N
1597072615.7,286046999.8,N
1597072635.5,286047000.2,N
1597072655.4,286047000.8,N
1597072675.2,286046999.0,N
1597072695.1,286046999.0,N
1597072696.0,286046999.0,N
1597072715.8,286046999.2,N
1597072735.6,286046996.8,Y
1597072755.5,286046996.5,P
1597072775.3,286046995.4,N
1597072795.1,286046994.9,N
1597072815.9,286046995.0,N
1597072835.7,286046995.4,N
1597072855.6,286046997.9,N
1597072875.4,286046997.8,N
1597072895.2,286046995.8,N
1597072915.1,286046993.5,Y
1597072916.0,286046993.5,P
1597072935.8,286046999.6,N
1597072955.6,286046998.5,N
1597072975.5,286046998.2,N
1597072995.3,286047001.2,N
1597073015.2,286046998.4,N
1597073035.9,286046998.4,N
1597073055.7,286046998.6,N
1597073075.6,286046998.5,N
1597073095.4,286046998.1,N
1597073115.2,286046998.8,N
1597073135.1,286046999.3,N
1597073136.0,286046999.3,N
1597073155.8,286046998.9,N
1597073175.7,286046999.6,N
1597073195.5,286046997.3,N
1597073215.3,286046997.4,N
1597073235.2,286046997.0,N
1597073255.0,286046999.5,N
1597073255.9,286046999.5,N
1597073275.7,286046996.7,N
1597073295.6,286046996.9,N
1597073315.4,286046999.2,N
1597073335.3,286046997.3,N
1597073355.1,286046996.8,N
1597073356.0,286046996.8,N
1597073375.8,286046997.5,N
1597073395.7,286046997.3,N
1597073415.5,286046995.0,Y
1597073435.4,286046999.4,P
1597073455.2,286046999.1,N
1597073475.0,286046998.4,N
1597073475.9,286046998.4,Y
1597073495.8,286046998.3,P
1597073515.6,286046998.7,P
1597073535.4,286047000.7,P
1597073555.3,286047000.7,N
1597073575.1,286047001.1,N
1597073595.9,286046998.5,N
1597073615.7,286047000.2,N
1597073635.5,286046999.8,N
1597073655.4,286047002.7,N
1597073675.2,286047002.4,N
1597073695.0,286047001.1,N
1597073695.9,286047001.1,N
1597073715.8,286047000.8,N
1597073735.6,286047000.9,N
1597073755.5,286047000.6,N
1597073775.3,286046998.3,N
1597073795.1,286046999.4,N
1597073815.9,286046997.0,N
1597073835.7,286046996.6,N
1597073855.5,286046999.1,N
1597073875.4,286046996.6,N
1597073895.2,286046996.7,N
1597073915.1,286046999.0,N
1597073916.0,286046999.0,N
1597073935.8,286046998.7,N
1597073955.6,286046999.0,N
1597073975.5,286047001.2,N
1597073995.3,286047002.7,N
1597074015.1,286047002.7,N
1597074035.9,286047000.0,N
1597074055.7,286047002.3,N
1597074075.6,286047002.2,N
1597074095.4,286047001.6,N
1597074115.2,286047004.0,N
1597074135.1,286047001.3,N
1597074136.0,286047001.3,N
1597074155.8,286047004.3,N
1597074175.6,286047004.3,N
1597074195.5,286047004.3,N
1597074215.3,286047004.1,N
1597074235.2,286047001.4,N
1597074255.9,286047004.0,N
1597074275.7,286047001.4,N
1597074295.6,286047001.7,N
1597074315.4,286047002.5,N
1597074335.2,286047002.3,N
1597074355.1,286047002.2,N
1597074356.0,286047002.2,N
1597074375.8,286046999.7,N
1597074395.7,286047000.3,N
1597074415.5,286046999.8,N
1597074435.4,286047002.6,N
1597074455.2,286047001.5,N
1597074475.0,286047001.5,N
1597074475.9,286047001.5,N
1597074495.8,286047001.7,N
1597074515.6,286047001.3,N
1597074535.5,286047002.2,N
1597074555.3,286047001.5,N
1597074575.1,286047002.2,N
1597074595.9,286047000.2,N
1597074615.7,286047000.9,N
1597074635.5,286047002.8,N
1597074655.4,286047002.8,N
1597074675.2,286047000.1,N
1597074695.1,286046999.7,N
1597074696.0,286046999.7,N
1597074715.8,286047004.0,N
1597074735.6,286047004.4,Y
1597074755.5,286047002.3,P
1597074775.3,286047002.2,P
1597074795.1,286047002.4,P
1597074815.9,286046999.9,N
1597074835.7,286046999.9,N
1597074855.6,286046999.7,N
1597074875.4,286046999.7,N
1597074895.2,286046999.7,N
1597074915.1,286046999.9,N
1597074916.0,286046999.9,N
1597074935.8,286046999.9,N
1597074955.6,286047000.5,N
1597074975.5,286046999.3,N
1597074995.3,286046999.5,N
1597075015.2,286046996.9,N
1597075035.9,286046997.3,N
1597075055.7,286046996.7,N
1597075075.6,286046996.5,N
1597075095.4,286046999.3,N
1597075115.2,286046998.8,N
1597075135.1,286047000.0,N
1597075136.0,286047000.0,N
1597075155.8,286047002.1,N
1597075175.7,286047002.4,N
1597075195.5,286046998.9,N
